User: anonymous   Login
Location: Gro�sch�nbrunn
(49.5760°N, 11.8868°E)
Time: 07:38:59
(UTC+00:00)
Language:

Cosmos 1269 Rocket - Orbit

View from above orbital plane
View from above orbital plane
View from above satellite
View from above satellite

Ground track
Ground track

The orbit data is extracted from the following two-line orbital elements,

1 12443U 81041B   20336.84564847  .00000093  00000-0  42095-4 0  9994
2 12443  74.0557  14.6797 0004136 180.6347 179.4801 14.34743535 68970
Epoch (UTC): 01 December 2020 20:17:44
Eccentricity: 0.0004136
inclination: 74.0557°
perigee height: 773 km
apogee height: 779 km
right ascension of ascending node: 14.6797°
argument of perigee: 180.6347°
revolutions per day: 14.34743535
mean anomaly at epoch: 179.4801°
orbit number at epoch: 6897

The dashed part of the orbit path shows where the satellite is in the earth's shadow,  

DLR